Flag for New Zealand Weather past 2 weeks in Wellington, New Zealand

Now
50 °F

Overcast.


Feels Like: 44 °F
Forecast: 49 / 52 °F
Wind: 16 mph from South

Location: Wellington Airport

Current Time: Aug 30, 2015 at 7:03:57 PM

Latest Report: Aug 30, 2015 at 6:30 PM


Visibility: 5 mi

Pressure: 30.07 "Hg

Humidity: 88%

Dew point: 46 °F

Location of WellingtonLocation

Historic Weather in Wellington — Graph

°F

Wellington temperature yesterday

Maximum temperature yesterday: 54 °F (at 12:00 AM)
Minimum temperature yesterday: 52 °F (at 12:30 AM)
Average temperature yesterday: 53 °F

Past Weeks' High & Low Weather Summary

 TemperatureHumidityPressure
High61 °F (Aug 30, 12:00 PM)100% (Aug 25, 12:00 PM)30.57 "Hg (Aug 25, 12:00 PM)
Low37 °F (Aug 22, 3:00 AM)47% (Aug 27, 12:00 PM)29.65 "Hg (Aug 19, 3:30 PM)
Average51 °F78%30.15 "Hg
* Reported Aug 15 6:00 PM — Aug 30 6:00 PM, Wellington, Weather by CustomWeather, © 2015

Note: Actual official high and low records may vary slightly from our data, if they occured in-between our weather recording intervals... More about our weather records

Advertising

Wellington weather history for previous 24 hours

 ConditionsComfort  
Time TempWeatherWind HumidityBarometerVisibility
6:00 PM
Sun, Aug 30
50 °FOvercast.15 mph88%30.07 "HgN/A
5:30 PM50 °FLow clouds.16 mph94%30.04 "HgN/A
5:00 PM50 °FLow clouds.16 mph94%30.04 "HgN/A
4:30 PM52 °FLow clouds.16 mph88%30.04 "HgN/A
3:30 PM52 °FMostly cloudy.16 mph94%30.04 "Hg4 mi
3:00 PM57 °FPartly sunny.8 mph77%30.01 "HgN/A
2:30 PM61 °FCool.12 mph72%29.98 "HgN/A
2:00 PM61 °FCool.15 mph72%29.98 "HgN/A
1:30 PM61 °FCool.15 mph72%29.98 "HgN/A
1:00 PM59 °FPassing clouds.14 mph77%29.98 "HgN/A
12:30 PM59 °FPassing clouds.13 mph77%30.01 "HgN/A
12:00 PM61 °FScattered clouds.14 mph72%30.01 "HgN/A
11:30 AM59 °FPassing clouds.14 mph82%30.01 "HgN/A
11:00 AM57 °FPartly sunny.15 mph82%30.01 "HgN/A
10:30 AM57 °FScattered clouds.15 mph82%30.01 "HgN/A
10:00 AM57 °FPartly sunny.15 mph82%29.98 "HgN/A
9:30 AM55 °FPartly sunny.13 mph88%29.98 "HgN/A
9:00 AM57 °FPartly sunny.13 mph82%29.98 "HgN/A
8:30 AM55 °FPartly sunny.14 mph88%29.98 "HgN/A
8:00 AM55 °FPartly sunny.12 mph88%29.98 "HgN/A
7:30 AM54 °FOvercast.14 mph94%29.98 "HgN/A
7:00 AM54 °FOvercast.13 mph94%29.98 "HgN/A
6:30 AM54 °FPartly sunny.12 mph94%29.98 "HgN/A
6:00 AM55 °FPartly sunny.14 mph88%29.95 "HgN/A
5:30 AM54 °FPassing clouds.15 mph94%29.95 "HgN/A
5:00 AM54 °FPassing clouds.14 mph94%29.95 "HgN/A
4:30 AM54 °FPartly cloudy.16 mph94%29.95 "HgN/A
4:00 AM55 °FPassing clouds.14 mph88%29.95 "HgN/A
3:30 AM55 °FPassing clouds.13 mph94%29.95 "HgN/A
3:00 AM55 °FOvercast.12 mph94%29.98 "HgN/A
2:30 AM55 °FLow clouds.18 mph94%29.98 "HgN/A
2:00 AM54 °FLow clouds.23 mph100%29.98 "HgN/A
1:30 AM54 °FLow clouds.21 mph94%29.98 "HgN/A
1:00 AM52 °FLow clouds.20 mph100%30.01 "Hg4 mi
12:30 AM52 °FLight rain. Low clouds.17 mph100%30.01 "Hg4 mi
11:30 PM
Sat, Aug 29
52 °FDrizzle. Overcast.12 mph94%30.01 "Hg3 mi
11:00 PM52 °FSprinkles. Overcast.17 mph94%30.01 "Hg3 mi
10:00 PM52 °FLight rain. Partly cloudy.22 mph94%30.04 "Hg2 mi
9:30 PM52 °FLight rain. Passing clouds.24 mph94%30.04 "Hg2 mi
9:00 PM52 °FSprinkles. Overcast.23 mph94%30.04 "Hg2 mi
8:30 PM52 °FSprinkles. Passing clouds.23 mph94%30.07 "Hg2 mi
8:00 PM52 °FLight rain. Overcast.21 mph94%30.07 "Hg4 mi
7:30 PM52 °FSprinkles. Passing clouds.21 mph94%30.07 "Hg3 mi
7:00 PM52 °FPartly cloudy.21 mph94%30.07 "Hg3 mi
Weather by CustomWeather, © 2015

See weather overviewHow to use our weather pages